Time,TemperatureF,DewpointF,PressureIn,WindDirection,WindDirectionDegrees,WindSpeedMPH,WindSpeedGustMPH,Humidity,HourlyPrecipIn,Conditions,Clouds,dailyrainin,SoftwareType,DateUTC
2013-11-20 00:01:00,24.0,21.8,30.42,SE,135,0.0,0.0,91,0.00,,---,0.00,VWS V14.01,2013-11-20 05:01:00,
2013-11-20 00:02:00,24.0,21.8,30.42,SE,135,0.0,0.0,91,0.00,,---,0.00,VWS V14.01,2013-11-20 05:02:00,
2013-11-20 00:03:00,23.0,20.8,30.42,SE,135,0.0,0.0,91,0.00,,---,0.00,VWS V14.01,2013-11-20 05:03:00,
2013-11-20 00:06:00,23.0,20.8,30.42,SE,135,0.0,0.0,91,0.00,,---,0.00,VWS V14.01,2013-11-20 05:06:00,
2013-11-20 00:11:00,23.0,20.8,30.42,SE,135,0.0,0.0,91,0.00,,---,0.00,VWS V14.01,2013-11-20 05:11:00,
2013-11-20 00:16:00,23.0,20.8,30.42,SE,135,1.0,1.0,91,0.00,,---,0.00,VWS V14.01,2013-11-20 05:16:00,
2013-11-20 00:21:00,23.0,21.0,30.42,SE,135,1.0,1.0,92,0.00,,---,0.00,VWS V14.01,2013-11-20 05:21:00,
2013-11-20 00:26:00,23.0,21.0,30.42,SE,135,0.0,1.0,92,0.00,,---,0.00,VWS V14.01,2013-11-20 05:26:00,
2013-11-20 00:31:00,23.0,21.0,30.42,SE,135,0.0,1.0,92,0.00,,---,0.00,VWS V14.01,2013-11-20 05:31:00,
2013-11-20 00:36:00,23.0,21.0,30.42,SE,135,0.0,1.0,92,0.00,,---,0.00,VWS V14.01,2013-11-20 05:36:00,
2013-11-20 00:41:00,23.0,21.0,30.42,SE,135,0.0,0.0,92,0.00,,---,0.00,VWS V14.01,2013-11-20 05:41:00,
2013-11-20 00:46:00,23.0,21.0,30.42,SE,135,0.0,0.0,92,0.00,,---,0.00,VWS V14.01,2013-11-20 05:46:00,
2013-11-20 00:52:00,23.0,21.3,30.42,SE,135,0.0,1.0,93,0.00,,---,0.00,VWS V14.01,2013-11-20 05:52:00,
2013-11-20 00:57:00,23.0,21.3,30.42,SE,135,1.0,1.0,93,0.00,,---,0.00,VWS V14.01,2013-11-20 05:57:00,
2013-11-20 01:02:00,23.0,21.3,30.42,SE,135,0.0,1.0,93,0.00,,---,0.00,VWS V14.01,2013-11-20 06:02:00,
2013-11-20 01:07:00,23.0,21.3,30.42,SE,135,0.0,1.0,93,0.00,,---,0.00,VWS V14.01,2013-11-20 06:07:00,
2013-11-20 01:12:00,23.0,21.3,30.42,SE,135,0.0,1.0,93,0.00,,---,0.00,VWS V14.01,2013-11-20 06:12:00,
2013-11-20 01:17:00,22.0,20.3,30.42,SE,135,0.0,1.0,93,0.00,,---,0.00,VWS V14.01,2013-11-20 06:17:00,
2013-11-20 01:22:00,22.0,20.3,30.42,SE,135,0.0,1.0,93,0.00,,---,0.00,VWS V14.01,2013-11-20 06:22:00,
2013-11-20 01:28:00,22.0,20.3,30.42,SE,135,0.0,1.0,93,0.00,,---,0.00,VWS V14.01,2013-11-20 06:28:00,
2013-11-20 01:33:00,22.0,20.3,30.42,SE,135,0.0,1.0,93,0.00,,---,0.00,VWS V14.01,2013-11-20 06:33:00,
2013-11-20 01:38:00,22.0,20.3,30.42,SE,135,0.0,1.0,93,0.00,,---,0.00,VWS V14.01,2013-11-20 06:38:00,
2013-11-20 01:43:00,23.0,21.5,30.42,SE,135,0.0,0.0,94,0.00,,---,0.00,VWS V14.01,2013-11-20 06:43:00,
2013-11-20 01:48:00,22.0,20.5,30.42,SE,135,0.0,1.0,94,0.00,,---,0.00,VWS V14.01,2013-11-20 06:48:00,
2013-11-20 01:54:00,22.0,20.5,30.43,East,90,0.0,1.0,94,0.00,,---,0.00,VWS V14.01,2013-11-20 06:54:00,
2013-11-20 01:59:00,22.0,20.5,30.43,East,90,0.0,1.0,94,0.00,,---,0.00,VWS V14.01,2013-11-20 06:59:00,
2013-11-20 02:04:00,22.0,20.5,30.43,East,90,0.0,1.0,94,0.00,,---,0.00,VWS V14.01,2013-11-20 07:04:00,
2013-11-20 02:09:00,22.0,20.5,30.43,East,90,0.0,1.0,94,0.00,,---,0.00,VWS V14.01,2013-11-20 07:09:00,
2013-11-20 02:14:00,22.0,20.5,30.43,SE,135,1.0,1.0,94,0.00,,---,0.00,VWS V14.01,2013-11-20 07:14:00,
2013-11-20 02:19:00,22.0,20.5,30.43,SE,135,1.0,1.0,94,0.00,,---,0.00,VWS V14.01,2013-11-20 07:19:00,
2013-11-20 02:25:00,23.0,21.5,30.43,SE,135,1.0,3.0,94,0.00,,---,0.00,VWS V14.01,2013-11-20 07:25:00,
2013-11-20 02:30:00,22.0,20.5,30.44,SE,135,1.0,3.0,94,0.00,,---,0.00,VWS V14.01,2013-11-20 07:30:00,
2013-11-20 02:35:00,22.0,20.5,30.43,SE,135,1.0,3.0,94,0.00,,---,0.00,VWS V14.01,2013-11-20 07:35:00,
2013-11-20 02:40:00,22.0,20.5,30.43,SE,135,0.0,0.0,94,0.00,,---,0.00,VWS V14.01,2013-11-20 07:40:00,
2013-11-20 02:45:00,22.0,20.5,30.43,ESE,112,2.0,3.0,94,0.00,,---,0.00,VWS V14.01,2013-11-20 07:45:00,
2013-11-20 02:50:00,22.0,20.5,30.43,East,90,0.0,3.0,94,0.00,,---,0.00,VWS V14.01,2013-11-20 07:50:00,
2013-11-20 02:55:00,22.0,20.5,30.43,East,90,0.0,3.0,94,0.00,,---,0.00,VWS V14.01,2013-11-20 07:55:00,
2013-11-20 03:00:00,23.0,21.5,30.43,East,90,0.0,1.0,94,0.00,,---,0.00,VWS V14.01,2013-11-20 08:00:00,
2013-11-20 03:06:00,23.0,21.5,30.43,ESE,112,0.0,1.0,94,0.00,,---,0.00,VWS V14.01,2013-11-20 08:06:00,
2013-11-20 03:11:00,23.0,21.5,30.43,SE,135,0.0,1.0,94,0.00,,---,0.00,VWS V14.01,2013-11-20 08:11:00,
2013-11-20 03:16:00,23.0,21.5,30.44,East,90,0.0,2.0,94,0.00,,---,0.00,VWS V14.01,2013-11-20 08:16:00,
2013-11-20 03:21:00,23.0,21.5,30.44,SE,135,0.0,1.0,94,0.00,,---,0.00,VWS V14.01,2013-11-20 08:21:00,
2013-11-20 03:26:00,23.0,21.5,30.44,ESE,112,0.0,2.0,94,0.00,,---,0.00,VWS V14.01,2013-11-20 08:26:00,
2013-11-20 03:31:00,23.0,21.5,30.44,ESE,112,0.0,2.0,94,0.00,,---,0.00,VWS V14.01,2013-11-20 08:31:00,
2013-11-20 03:36:00,23.0,21.5,30.44,ESE,112,0.0,2.0,94,0.00,,---,0.00,VWS V14.01,2013-11-20 08:36:00,
2013-11-20 03:41:00,22.0,20.5,30.44,East,90,0.0,1.0,94,0.00,,---,0.00,VWS V14.01,2013-11-20 08:41:00,
2013-11-20 03:46:00,22.0,20.5,30.44,ESE,112,0.0,1.0,94,0.00,,---,0.00,VWS V14.01,2013-11-20 08:46:00,
2013-11-20 03:52:00,22.0,20.5,30.44,SE,135,0.0,1.0,94,0.00,,---,0.00,VWS V14.01,2013-11-20 08:52:00,
2013-11-20 03:57:00,22.0,20.5,30.44,SE,135,1.0,1.0,94,0.00,,---,0.00,VWS V14.01,2013-11-20 08:57:00,
2013-11-20 04:02:00,22.0,20.5,30.44,SE,135,0.0,1.0,94,0.00,,---,0.00,VWS V14.01,2013-11-20 09:02:00,
2013-11-20 04:07:00,22.0,20.5,30.44,SE,135,0.0,1.0,94,0.00,,---,0.00,VWS V14.01,2013-11-20 09:07:00,
2013-11-20 04:12:00,22.0,20.5,30.45,East,90,1.0,2.0,94,0.00,,---,0.00,VWS V14.01,2013-11-20 09:12:00,
2013-11-20 04:17:00,22.0,20.5,30.45,ESE,112,1.0,3.0,94,0.00,,---,0.00,VWS V14.01,2013-11-20 09:17:00,
2013-11-20 04:22:00,22.0,20.5,30.45,SE,135,1.0,1.0,94,0.00,,---,0.00,VWS V14.01,2013-11-20 09:22:00,
2013-11-20 04:27:00,22.0,20.5,30.45,SE,135,0.0,2.0,94,0.00,,---,0.00,VWS V14.01,2013-11-20 09:27:00,
2013-11-20 04:32:00,22.0,20.5,30.45,SE,135,0.0,2.0,94,0.00,,---,0.00,VWS V14.01,2013-11-20 09:32:00,
2013-11-20 04:37:00,22.0,20.5,30.45,SE,135,0.0,2.0,94,0.00,,---,0.00,VWS V14.01,2013-11-20 09:37:00,
2013-11-20 04:43:00,22.0,20.5,30.45,SE,135,0.0,0.0,94,0.00,,---,0.00,VWS V14.01,2013-11-20 09:43:00,
2013-11-20 04:48:00,22.0,20.5,30.46,SE,135,0.0,0.0,94,0.00,,---,0.00,VWS V14.01,2013-11-20 09:48:00,
2013-11-20 04:53:00,21.0,19.5,30.46,SE,135,0.0,0.0,94,0.00,,---,0.00,VWS V14.01,2013-11-20 09:53:00,
2013-11-20 04:58:00,22.0,20.5,30.46,SE,135,0.0,0.0,94,0.00,,---,0.00,VWS V14.01,2013-11-20 09:58:00,
2013-11-20 05:03:00,22.0,20.5,30.46,SE,135,0.0,0.0,94,0.00,,---,0.00,VWS V14.01,2013-11-20 10:03:00,
2013-11-20 05:08:00,21.0,19.5,30.46,SE,135,0.0,0.0,94,0.00,,---,0.00,VWS V14.01,2013-11-20 10:08:00,
2013-11-20 05:13:00,21.0,19.5,30.47,SE,135,0.0,0.0,94,0.00,,---,0.00,VWS V14.01,2013-11-20 10:13:00,
2013-11-20 05:18:00,21.0,19.5,30.46,SE,135,0.0,0.0,94,0.00,,---,0.00,VWS V14.01,2013-11-20 10:18:00,
2013-11-20 05:23:00,21.0,19.5,30.47,ENE,68,0.0,0.0,94,0.00,,---,0.00,VWS V14.01,2013-11-20 10:23:00,
2013-11-20 05:28:00,21.0,19.5,30.46,ENE,68,0.0,0.0,94,0.00,,---,0.00,VWS V14.01,2013-11-20 10:28:00,
2013-11-20 05:33:00,21.0,19.5,30.47,ENE,68,0.0,0.0,94,0.00,,---,0.00,VWS V14.01,2013-11-20 10:33:00,
2013-11-20 05:38:00,21.0,19.5,30.47,ENE,68,0.0,0.0,94,0.00,,---,0.00,VWS V14.01,2013-11-20 10:38:00,
2013-11-20 05:43:00,21.0,19.8,30.47,East,90,0.0,0.0,95,0.00,,---,0.00,VWS V14.01,2013-11-20 10:43:00,
2013-11-20 05:49:00,21.0,19.8,30.47,East,90,0.0,0.0,95,0.00,,---,0.00,VWS V14.01,2013-11-20 10:49:00,
2013-11-20 05:54:00,21.0,19.8,30.47,East,90,0.0,0.0,95,0.00,,---,0.00,VWS V14.01,2013-11-20 10:54:00,
2013-11-20 05:59:00,21.0,19.8,30.46,ESE,112,0.0,0.0,95,0.00,,---,0.00,VWS V14.01,2013-11-20 10:59:00,
2013-11-20 06:04:00,21.0,19.8,30.47,ESE,112,0.0,0.0,95,0.00,,---,0.00,VWS V14.01,2013-11-20 11:04:00,
2013-11-20 06:09:00,20.0,18.8,30.47,ESE,112,0.0,0.0,95,0.00,,---,0.00,VWS V14.01,2013-11-20 11:09:00,
2013-11-20 06:14:00,20.0,18.8,30.47,SE,135,0.0,0.0,95,0.00,,---,0.00,VWS V14.01,2013-11-20 11:14:00,
2013-11-20 06:19:00,20.0,18.8,30.47,SE,135,0.0,0.0,95,0.00,,---,0.00,VWS V14.01,2013-11-20 11:19:00,
2013-11-20 06:24:00,20.0,18.8,30.47,SE,135,0.0,1.0,95,0.00,,---,0.00,VWS V14.01,2013-11-20 11:24:00,
2013-11-20 06:29:00,20.0,18.8,30.47,SE,135,0.0,1.0,95,0.00,,---,0.00,VWS V14.01,2013-11-20 11:29:00,
2013-11-20 06:34:00,20.0,18.8,30.47,SSE,158,0.0,1.0,95,0.00,,---,0.00,VWS V14.01,2013-11-20 11:34:00,
2013-11-20 06:39:00,20.0,18.8,30.48,SSE,158,0.0,1.0,95,0.00,,---,0.00,VWS V14.01,2013-11-20 11:39:00,
2013-11-20 06:44:00,20.0,18.8,30.48,SSE,158,0.0,0.0,95,0.00,,---,0.00,VWS V14.01,2013-11-20 11:44:00,
2013-11-20 06:50:00,21.0,20.0,30.48,SSE,158,0.0,0.0,96,0.00,,---,0.00,VWS V14.01,2013-11-20 11:50:00,
2013-11-20 06:55:00,21.0,19.8,30.48,SSE,158,0.0,0.0,95,0.00,,---,0.00,VWS V14.01,2013-11-20 11:55:00,
2013-11-20 07:00:00,21.0,20.0,30.48,SSE,158,0.0,0.0,96,0.00,,---,0.00,VWS V14.01,2013-11-20 12:00:00,
2013-11-20 07:05:00,21.0,20.0,30.48,SSE,158,0.0,0.0,96,0.00,,---,0.00,VWS V14.01,2013-11-20 12:05:00,
2013-11-20 07:10:00,21.0,19.8,30.48,SSE,158,0.0,0.0,95,0.00,,---,0.00,VWS V14.01,2013-11-20 12:10:00,
2013-11-20 07:15:00,21.0,20.0,30.49,SE,135,0.0,0.0,96,0.00,,---,0.00,VWS V14.01,2013-11-20 12:15:00,
2013-11-20 07:20:00,21.0,20.0,30.49,SE,135,0.0,0.0,96,0.00,,---,0.00,VWS V14.01,2013-11-20 12:20:00,
2013-11-20 07:25:00,21.0,20.0,30.49,SE,135,1.0,2.0,96,0.00,,---,0.00,VWS V14.01,2013-11-20 12:25:00,
2013-11-20 07:30:00,22.0,21.0,30.49,SE,135,0.0,3.0,96,0.00,,---,0.00,VWS V14.01,2013-11-20 12:30:00,
2013-11-20 07:35:00,22.0,21.0,30.49,ESE,112,1.0,3.0,96,0.00,,---,0.00,VWS V14.01,2013-11-20 12:35:00,
2013-11-20 07:40:00,22.0,21.0,30.49,East,90,0.0,2.0,96,0.00,,---,0.00,VWS V14.01,2013-11-20 12:40:00,
2013-11-20 07:45:00,22.0,20.8,30.49,ENE,68,0.0,3.0,95,0.00,,---,0.00,VWS V14.01,2013-11-20 12:45:00,
2013-11-20 07:51:00,23.0,21.8,30.49,ESE,112,1.0,3.0,95,0.00,,---,0.00,VWS V14.01,2013-11-20 12:51:00,
2013-11-20 07:56:00,23.0,21.8,30.49,East,90,0.0,4.0,95,0.00,,---,0.00,VWS V14.01,2013-11-20 12:56:00,
2013-11-20 08:01:00,24.0,22.8,30.50,East,90,0.0,0.0,95,0.00,,---,0.00,VWS V14.01,2013-11-20 13:01:00,
2013-11-20 08:06:00,24.0,22.5,30.50,ESE,112,1.0,3.0,94,0.00,,---,0.00,VWS V14.01,2013-11-20 13:06:00,
2013-11-20 08:11:00,24.0,22.5,30.49,East,90,0.0,3.0,94,0.00,,---,0.00,VWS V14.01,2013-11-20 13:11:00,
2013-11-20 08:16:00,24.0,22.5,30.50,ENE,68,1.0,3.0,94,0.00,,---,0.00,VWS V14.01,2013-11-20 13:16:00,
2013-11-20 08:21:00,25.0,23.5,30.49,ENE,68,1.0,1.0,94,0.00,,---,0.00,VWS V14.01,2013-11-20 13:21:00,
2013-11-20 08:26:00,25.0,23.3,30.50,ENE,68,0.0,2.0,93,0.00,,---,0.00,VWS V14.01,2013-11-20 13:26:00,
2013-11-20 08:31:00,25.0,23.0,30.50,ENE,68,0.0,2.0,92,0.00,,---,0.00,VWS V14.01,2013-11-20 13:31:00,
2013-11-20 08:36:00,26.0,24.0,30.50,ENE,68,3.0,3.0,92,0.00,,---,0.00,VWS V14.01,2013-11-20 13:36:00,
2013-11-20 08:42:00,26.0,23.7,30.50,ESE,112,1.0,2.0,91,0.00,,---,0.00,VWS V14.01,2013-11-20 13:42:00,
2013-11-20 08:47:00,26.0,23.5,30.50,East,90,1.0,5.0,90,0.00,,---,0.00,VWS V14.01,2013-11-20 13:47:00,
2013-11-20 08:52:00,27.0,23.9,30.50,SSE,158,1.0,5.0,88,0.00,,---,0.00,VWS V14.01,2013-11-20 13:52:00,
2013-11-20 08:57:00,27.0,23.6,30.50,SE,135,0.0,5.0,87,0.00,,---,0.00,VWS V14.01,2013-11-20 13:57:00,
2013-11-20 09:02:00,28.0,24.1,30.50,ENE,68,3.0,4.0,85,0.00,,---,0.00,VWS V14.01,2013-11-20 14:02:00,
2013-11-20 09:07:00,28.0,23.5,30.50,ENE,68,3.0,4.0,83,0.00,,---,0.00,VWS V14.01,2013-11-20 14:07:00,
2013-11-20 09:12:00,28.0,23.2,30.50,ESE,112,2.0,5.0,82,0.00,,---,0.00,VWS V14.01,2013-11-20 14:12:00,
2013-11-20 09:17:00,29.0,23.9,30.50,ENE,68,4.0,5.0,81,0.00,,---,0.00,VWS V14.01,2013-11-20 14:17:00,
2013-11-20 09:22:00,29.0,23.0,30.50,ENE,68,3.0,5.0,78,0.00,,---,0.00,VWS V14.01,2013-11-20 14:22:00,
2013-11-20 09:27:00,30.0,23.7,30.49,ENE,68,1.0,5.0,77,0.00,,---,0.00,VWS V14.01,2013-11-20 14:27:00,
2013-11-20 09:32:00,30.0,23.0,30.49,SE,135,1.0,6.0,75,0.00,,---,0.00,VWS V14.01,2013-11-20 14:32:00,
2013-11-20 09:37:00,31.0,23.4,30.49,SE,135,3.0,6.0,73,0.00,,---,0.00,VWS V14.01,2013-11-20 14:37:00,
2013-11-20 09:43:00,31.0,22.7,30.49,ESE,112,1.0,5.0,71,0.00,,---,0.00,VWS V14.01,2013-11-20 14:43:00,
2013-11-20 09:48:00,32.0,22.3,30.49,ENE,68,3.0,5.0,67,0.00,,---,0.00,VWS V14.01,2013-11-20 14:48:00,
2013-11-20 09:53:00,32.0,21.6,30.49,East,90,3.0,6.0,65,0.00,,---,0.00,VWS V14.01,2013-11-20 14:53:00,
2013-11-20 09:58:00,33.0,22.2,30.49,NE,45,1.0,6.0,64,0.00,,---,0.00,VWS V14.01,2013-11-20 14:58:00,
2013-11-20 10:03:00,33.0,22.2,30.49,SE,135,1.0,3.0,64,0.00,,---,0.00,VWS V14.01,2013-11-20 15:03:00,
2013-11-20 10:08:00,34.0,22.4,30.48,ENE,68,1.0,3.0,62,0.00,,---,0.00,VWS V14.01,2013-11-20 15:08:00,
2013-11-20 10:13:00,34.0,21.6,30.49,ESE,112,1.0,6.0,60,0.00,,---,0.00,VWS V14.01,2013-11-20 15:13:00,
2013-11-20 10:18:00,34.0,21.6,30.49,ESE,112,3.0,6.0,60,0.00,,---,0.00,VWS V14.01,2013-11-20 15:18:00,
2013-11-20 10:23:00,34.0,21.2,30.49,ENE,68,4.0,6.0,59,0.00,,---,0.00,VWS V14.01,2013-11-20 15:23:00,
2013-11-20 10:28:00,35.0,22.1,30.49,ENE,68,1.0,6.0,59,0.00,,---,0.00,VWS V14.01,2013-11-20 15:28:00,
2013-11-20 10:33:00,35.0,21.3,30.49,ENE,68,2.0,6.0,57,0.00,,---,0.00,VWS V14.01,2013-11-20 15:33:00,
2013-11-20 10:38:00,36.0,21.4,30.49,ESE,112,3.0,7.0,55,0.00,,---,0.00,VWS V14.01,2013-11-20 15:38:00,
2013-11-20 10:44:00,37.0,21.5,30.49,SE,135,3.0,5.0,53,0.00,,---,0.00,VWS V14.01,2013-11-20 15:44:00,
2013-11-20 10:49:00,37.0,20.1,30.49,ESE,112,1.0,6.0,50,0.00,,---,0.00,VWS V14.01,2013-11-20 15:49:00,
2013-11-20 10:54:00,37.0,19.6,30.49,ESE,112,4.0,6.0,49,0.00,,---,0.00,VWS V14.01,2013-11-20 15:54:00,
2013-11-20 10:59:00,38.0,19.6,30.49,East,90,5.0,6.0,47,0.00,,---,0.00,VWS V14.01,2013-11-20 15:59:00,
2013-11-20 11:04:00,38.0,19.6,30.48,SSE,158,1.0,6.0,47,0.00,,---,0.00,VWS V14.01,2013-11-20 16:04:00,
2013-11-20 11:09:00,38.0,19.1,30.48,South,180,4.0,9.0,46,0.00,,---,0.00,VWS V14.01,2013-11-20 16:09:00,
2013-11-20 11:14:00,38.0,18.6,30.48,SSE,158,6.0,9.0,45,0.00,,---,0.00,VWS V14.01,2013-11-20 16:14:00,
2013-11-20 11:19:00,38.0,17.0,30.48,SE,135,8.0,10.0,42,0.00,,---,0.00,VWS V14.01,2013-11-20 16:19:00,
2013-11-20 11:24:00,38.0,17.0,30.48,SE,135,7.0,10.0,42,0.00,,---,0.00,VWS V14.01,2013-11-20 16:24:00,
2013-11-20 11:29:00,39.0,17.3,30.48,SE,135,10.0,10.0,41,0.00,,---,0.00,VWS V14.01,2013-11-20 16:29:00,
2013-11-20 11:34:00,39.0,16.2,30.48,ESE,112,3.0,12.0,39,0.00,,---,0.00,VWS V14.01,2013-11-20 16:34:00,
2013-11-20 11:40:00,39.0,16.2,30.48,East,90,3.0,12.0,39,0.00,,---,0.00,VWS V14.01,2013-11-20 16:40:00,
2013-11-20 11:45:00,40.0,17.1,30.47,SE,135,5.0,7.0,39,0.00,,---,0.00,VWS V14.01,2013-11-20 16:45:00,
2013-11-20 11:50:00,40.0,17.1,30.47,ESE,112,5.0,8.0,39,0.00,,---,0.00,VWS V14.01,2013-11-20 16:50:00,
2013-11-20 11:55:00,40.0,15.9,30.47,ESE,112,5.0,13.0,37,0.00,,---,0.00,VWS V14.01,2013-11-20 16:55:00,
2013-11-20 12:00:00,41.0,17.4,30.46,East,90,3.0,5.0,38,0.00,,---,0.00,VWS V14.01,2013-11-20 17:00:00,
2013-11-20 12:05:00,41.0,17.4,30.46,ESE,112,5.0,11.0,38,0.00,,---,0.00,VWS V14.01,2013-11-20 17:05:00,
2013-11-20 12:10:00,42.0,17.0,30.46,ESE,112,5.0,11.0,36,0.00,,---,0.00,VWS V14.01,2013-11-20 17:10:00,
2013-11-20 12:15:00,42.0,16.4,30.45,ESE,112,3.0,11.0,35,0.00,,---,0.00,VWS V14.01,2013-11-20 17:15:00,
2013-11-20 12:20:00,42.0,15.0,30.45,ENE,68,3.0,8.0,33,0.00,,---,0.00,VWS V14.01,2013-11-20 17:20:00,
2013-11-20 12:25:00,43.0,16.6,30.45,ESE,112,9.0,9.0,34,0.00,,---,0.00,VWS V14.01,2013-11-20 17:25:00,
2013-11-20 12:31:00,43.0,15.9,30.45,East,90,1.0,9.0,33,0.00,,---,0.00,VWS V14.01,2013-11-20 17:31:00,
2013-11-20 12:36:00,43.0,15.2,30.45,East,90,4.0,14.0,32,0.00,,---,0.00,VWS V14.01,2013-11-20 17:36:00,
2013-11-20 12:41:00,43.0,13.7,30.45,SE,135,7.0,11.0,30,0.00,,---,0.00,VWS V14.01,2013-11-20 17:41:00,
2013-11-20 12:46:00,43.0,12.9,30.44,East,90,5.0,16.0,29,0.00,,---,0.00,VWS V14.01,2013-11-20 17:46:00,
2013-11-20 12:51:00,43.0,12.1,30.44,SE,135,13.0,16.0,28,0.00,,---,0.00,VWS V14.01,2013-11-20 17:51:00,
2013-11-20 12:56:00,44.0,13.0,30.44,SSE,158,10.0,16.0,28,0.00,,---,0.00,VWS V14.01,2013-11-20 17:56:00,
2013-11-20 13:01:00,44.0,13.0,30.44,SE,135,10.0,14.0,28,0.00,,---,0.00,VWS V14.01,2013-11-20 18:01:00,
2013-11-20 13:06:00,44.0,13.0,30.44,East,90,5.0,15.0,28,0.00,,---,0.00,VWS V14.01,2013-11-20 18:06:00,
2013-11-20 13:11:00,44.0,12.2,30.44,ESE,112,7.0,15.0,27,0.00,,---,0.00,VWS V14.01,2013-11-20 18:11:00,
2013-11-20 13:16:00,45.0,13.1,30.43,ENE,68,5.0,15.0,27,0.00,,---,0.00,VWS V14.01,2013-11-20 18:16:00,
2013-11-20 13:21:00,46.0,14.7,30.43,SE,135,9.0,10.0,28,0.00,,---,0.00,VWS V14.01,2013-11-20 18:21:00,
2013-11-20 13:27:00,45.0,12.2,30.43,SE,135,15.0,16.0,26,0.00,,---,0.00,VWS V14.01,2013-11-20 18:27:00,
2013-11-20 13:32:00,45.0,12.2,30.43,East,90,5.0,16.0,26,0.00,,---,0.00,VWS V14.01,2013-11-20 18:32:00,
2013-11-20 13:37:00,45.0,11.3,30.42,SSE,158,6.0,16.0,25,0.00,,---,0.00,VWS V14.01,2013-11-20 18:37:00,
2013-11-20 13:42:00,45.0,12.2,30.42,SE,135,5.0,10.0,26,0.00,,---,0.00,VWS V14.01,2013-11-20 18:42:00,
2013-11-20 13:47:00,45.0,10.4,30.41,SE,135,11.0,14.0,24,0.00,,---,0.00,VWS V14.01,2013-11-20 18:47:00,
2013-11-20 13:52:00,45.0,11.3,30.41,SE,135,5.0,14.0,25,0.00,,---,0.00,VWS V14.01,2013-11-20 18:52:00,
2013-11-20 13:57:00,46.0,13.1,30.41,ESE,112,8.0,14.0,26,0.00,,---,0.00,VWS V14.01,2013-11-20 18:57:00,
2013-11-20 14:02:00,46.0,12.2,30.41,SE,135,8.0,11.0,25,0.00,,---,0.00,VWS V14.01,2013-11-20 19:02:00,
2013-11-20 14:07:00,45.0,10.4,30.41,SE,135,6.0,16.0,24,0.00,,---,0.00,VWS V14.01,2013-11-20 19:07:00,
2013-11-20 14:12:00,45.0,9.4,30.40,SE,135,7.0,16.0,23,0.00,,---,0.00,VWS V14.01,2013-11-20 19:12:00,
2013-11-20 14:17:00,45.0,10.4,30.40,SSE,158,10.0,16.0,24,0.00,,---,0.00,VWS V14.01,2013-11-20 19:17:00,
2013-11-20 14:23:00,45.0,10.4,30.40,ESE,112,9.0,14.0,24,0.00,,---,0.00,VWS V14.01,2013-11-20 19:23:00,
2013-11-20 14:28:00,45.0,9.4,30.40,ESE,112,8.0,14.0,23,0.00,,---,0.00,VWS V14.01,2013-11-20 19:28:00,
2013-11-20 14:33:00,46.0,10.3,30.40,SE,135,6.0,14.0,23,0.00,,---,0.00,VWS V14.01,2013-11-20 19:33:00,
2013-11-20 14:38:00,46.0,10.3,30.39,ESE,112,6.0,14.0,23,0.00,,---,0.00,VWS V14.01,2013-11-20 19:38:00,
2013-11-20 14:43:00,46.0,10.3,30.39,SE,135,13.0,13.0,23,0.00,,---,0.00,VWS V14.01,2013-11-20 19:43:00,
2013-11-20 14:48:00,46.0,8.3,30.39,ENE,68,8.0,16.0,21,0.00,,---,0.00,VWS V14.01,2013-11-20 19:48:00,
2013-11-20 14:53:00,46.0,8.3,30.39,SE,135,8.0,16.0,21,0.00,,---,0.00,VWS V14.01,2013-11-20 19:53:00,
2013-11-20 14:58:00,46.0,8.3,30.39,East,90,8.0,16.0,21,0.00,,---,0.00,VWS V14.01,2013-11-20 19:58:00,
2013-11-20 15:03:00,46.0,8.3,30.39,SE,135,10.0,15.0,21,0.00,,---,0.00,VWS V14.01,2013-11-20 20:03:00,
2013-11-20 15:08:00,46.0,8.3,30.39,South,180,8.0,15.0,21,0.00,,---,0.00,VWS V14.01,2013-11-20 20:08:00,
2013-11-20 15:13:00,46.0,8.3,30.39,East,90,3.0,15.0,21,0.00,,---,0.00,VWS V14.01,2013-11-20 20:13:00,
2013-11-20 15:19:00,46.0,9.3,30.39,SE,135,7.0,15.0,22,0.00,,---,0.00,VWS V14.01,2013-11-20 20:19:00,
2013-11-20 15:24:00,45.0,8.5,30.39,ESE,112,8.0,13.0,22,0.00,,---,0.00,VWS V14.01,2013-11-20 20:24:00,
2013-11-20 15:29:00,45.0,8.5,30.39,ESE,112,6.0,13.0,22,0.00,,---,0.00,VWS V14.01,2013-11-20 20:29:00,
2013-11-20 15:34:00,45.0,8.5,30.39,SE,135,11.0,13.0,22,0.00,,---,0.00,VWS V14.01,2013-11-20 20:34:00,
2013-11-20 15:39:00,45.0,9.4,30.39,ESE,112,5.0,13.0,23,0.00,,---,0.00,VWS V14.01,2013-11-20 20:39:00,
2013-11-20 15:44:00,45.0,10.4,30.39,SE,135,5.0,8.0,24,0.00,,---,0.00,VWS V14.01,2013-11-20 20:44:00,
2013-11-20 15:49:00,45.0,9.4,30.39,SE,135,6.0,11.0,23,0.00,,---,0.00,VWS V14.01,2013-11-20 20:49:00,
2013-11-20 15:54:00,45.0,10.4,30.39,SE,135,5.0,14.0,24,0.00,,---,0.00,VWS V14.01,2013-11-20 20:54:00,
2013-11-20 15:59:00,44.0,8.6,30.39,SE,135,9.0,14.0,23,0.00,,---,0.00,VWS V14.01,2013-11-20 20:59:00,
2013-11-20 16:04:00,44.0,9.5,30.39,ESE,112,6.0,15.0,24,0.00,,---,0.00,VWS V14.01,2013-11-20 21:04:00,
2013-11-20 16:09:00,44.0,9.5,30.39,ESE,112,11.0,15.0,24,0.00,,---,0.00,VWS V14.01,2013-11-20 21:09:00,
2013-11-20 16:14:00,44.0,8.6,30.39,SE,135,8.0,15.0,23,0.00,,---,0.00,VWS V14.01,2013-11-20 21:14:00,
2013-11-20 16:20:00,43.0,8.7,30.39,SE,135,9.0,15.0,24,0.00,,---,0.00,VWS V14.01,2013-11-20 21:20:00,
2013-11-20 16:25:00,43.0,9.6,30.39,SE,135,10.0,12.0,25,0.00,,---,0.00,VWS V14.01,2013-11-20 21:25:00,
2013-11-20 16:30:00,43.0,9.6,30.39,SE,135,6.0,12.0,25,0.00,,---,0.00,VWS V14.01,2013-11-20 21:30:00,
2013-11-20 16:35:00,43.0,10.5,30.39,SE,135,4.0,12.0,26,0.00,,---,0.00,VWS V14.01,2013-11-20 21:35:00,
2013-11-20 16:40:00,42.0,10.5,30.39,SE,135,5.0,6.0,27,0.00,,---,0.00,VWS V14.01,2013-11-20 21:40:00,
2013-11-20 16:45:00,42.0,10.5,30.39,ESE,112,5.0,7.0,27,0.00,,---,0.00,VWS V14.01,2013-11-20 21:45:00,
2013-11-20 16:50:00,42.0,11.3,30.40,ESE,112,4.0,7.0,28,0.00,,---,0.00,VWS V14.01,2013-11-20 21:50:00,
2013-11-20 16:55:00,42.0,12.1,30.40,East,90,2.0,7.0,29,0.00,,---,0.00,VWS V14.01,2013-11-20 21:55:00,
2013-11-20 17:00:00,41.0,11.2,30.40,SSE,158,8.0,8.0,29,0.00,,---,0.00,VWS V14.01,2013-11-20 22:00:00,
2013-11-20 17:05:00,41.0,12.0,30.40,SE,135,3.0,10.0,30,0.00,,---,0.00,VWS V14.01,2013-11-20 22:05:00,
2013-11-20 17:10:00,41.0,11.2,30.40,SE,135,8.0,13.0,29,0.00,,---,0.00,VWS V14.01,2013-11-20 22:10:00,
2013-11-20 17:16:00,41.0,12.0,30.40,SSE,158,5.0,13.0,30,0.00,,---,0.00,VWS V14.01,2013-11-20 22:16:00,
2013-11-20 17:21:00,41.0,12.0,30.40,ESE,112,9.0,12.0,30,0.00,,---,0.00,VWS V14.01,2013-11-20 22:21:00,
2013-11-20 17:26:00,40.0,11.1,30.40,SE,135,8.0,12.0,30,0.00,,---,0.00,VWS V14.01,2013-11-20 22:26:00,
2013-11-20 17:31:00,40.0,11.1,30.41,SE,135,3.0,12.0,30,0.00,,---,0.00,VWS V14.01,2013-11-20 22:31:00,
2013-11-20 17:36:00,40.0,11.1,30.40,SSE,158,4.0,12.0,30,0.00,,---,0.00,VWS V14.01,2013-11-20 22:36:00,
2013-11-20 17:41:00,40.0,11.1,30.40,ESE,112,8.0,13.0,30,0.00,,---,0.00,VWS V14.01,2013-11-20 22:41:00,
2013-11-20 17:46:00,40.0,11.8,30.40,East,90,3.0,13.0,31,0.00,,---,0.00,VWS V14.01,2013-11-20 22:46:00,
2013-11-20 17:51:00,39.0,11.7,30.40,ESE,112,6.0,13.0,32,0.00,,---,0.00,VWS V14.01,2013-11-20 22:51:00,
2013-11-20 17:56:00,39.0,11.7,30.40,ESE,112,5.0,13.0,32,0.00,,---,0.00,VWS V14.01,2013-11-20 22:56:00,
2013-11-20 18:01:00,39.0,12.4,30.40,SE,135,5.0,7.0,33,0.00,,---,0.00,VWS V14.01,2013-11-20 23:01:00,
2013-11-20 18:06:00,39.0,12.4,30.40,SE,135,5.0,7.0,33,0.00,,---,0.00,VWS V14.01,2013-11-20 23:06:00,
2013-11-20 18:12:00,39.0,13.0,30.40,SE,135,5.0,8.0,34,0.00,,---,0.00,VWS V14.01,2013-11-20 23:12:00,
2013-11-20 18:17:00,38.0,11.5,30.40,SE,135,3.0,9.0,33,0.00,,---,0.00,VWS V14.01,2013-11-20 23:17:00,
2013-11-20 18:22:00,38.0,11.5,30.40,ESE,112,3.0,6.0,33,0.00,,---,0.00,VWS V14.01,2013-11-20 23:22:00,
2013-11-20 18:27:00,38.0,12.1,30.40,SE,135,1.0,11.0,34,0.00,,---,0.00,VWS V14.01,2013-11-20 23:27:00,
2013-11-20 18:32:00,38.0,12.1,30.40,ESE,112,7.0,11.0,34,0.00,,---,0.00,VWS V14.01,2013-11-20 23:32:00,
2013-11-20 18:37:00,38.0,12.1,30.40,SE,135,4.0,11.0,34,0.00,,---,0.00,VWS V14.01,2013-11-20 23:37:00,
2013-11-20 18:42:00,38.0,12.1,30.40,ESE,112,7.0,12.0,34,0.00,,---,0.00,VWS V14.01,2013-11-20 23:42:00,
2013-11-20 18:47:00,38.0,11.5,30.40,SE,135,4.0,12.0,33,0.00,,---,0.00,VWS V14.01,2013-11-20 23:47:00,
2013-11-20 18:52:00,38.0,11.5,30.40,SE,135,6.0,12.0,33,0.00,,---,0.00,VWS V14.01,2013-11-20 23:52:00,
2013-11-20 18:57:00,38.0,12.1,30.40,SE,135,6.0,12.0,34,0.00,,---,0.00,VWS V14.01,2013-11-20 23:57:00,
2013-11-20 19:03:00,38.0,11.5,30.40,SE,135,6.0,11.0,33,0.00,,---,0.00,VWS V14.01,2013-11-21 00:03:00,
2013-11-20 19:08:00,38.0,12.1,30.40,SE,135,6.0,11.0,34,0.00,,---,0.00,VWS V14.01,2013-11-21 00:08:00,
2013-11-20 19:13:00,37.0,11.2,30.40,South,180,7.0,11.0,34,0.00,,---,0.00,VWS V14.01,2013-11-21 00:13:00,
2013-11-20 19:18:00,37.0,11.2,30.40,ESE,112,4.0,14.0,34,0.00,,---,0.00,VWS V14.01,2013-11-21 00:18:00,
2013-11-20 19:23:00,37.0,11.9,30.40,SE,135,5.0,13.0,35,0.00,,---,0.00,VWS V14.01,2013-11-21 00:23:00,
2013-11-20 19:28:00,37.0,11.2,30.40,SE,135,7.0,13.0,34,0.00,,---,0.00,VWS V14.01,2013-11-21 00:28:00,
2013-11-20 19:33:00,37.0,11.9,30.40,SE,135,5.0,14.0,35,0.00,,---,0.00,VWS V14.01,2013-11-21 00:33:00,
2013-11-20 19:38:00,37.0,11.9,30.40,SE,135,6.0,14.0,35,0.00,,---,0.00,VWS V14.01,2013-11-21 00:38:00,
2013-11-20 19:43:00,37.0,11.9,30.40,ESE,112,7.0,12.0,35,0.00,,---,0.00,VWS V14.01,2013-11-21 00:43:00,
2013-11-20 19:49:00,37.0,11.9,30.40,SE,135,6.0,13.0,35,0.00,,---,0.00,VWS V14.01,2013-11-21 00:49:00,
2013-11-20 19:54:00,37.0,11.9,30.40,ESE,112,9.0,13.0,35,0.00,,---,0.00,VWS V14.01,2013-11-21 00:54:00,
2013-11-20 19:59:00,37.0,11.9,30.40,SE,135,6.0,13.0,35,0.00,,---,0.00,VWS V14.01,2013-11-21 00:59:00,
2013-11-20 20:04:00,37.0,11.9,30.40,SE,135,8.0,13.0,35,0.00,,---,0.00,VWS V14.01,2013-11-21 01:04:00,
2013-11-20 20:09:00,37.0,11.9,30.40,SE,135,10.0,17.0,35,0.00,,---,0.00,VWS V14.01,2013-11-21 01:09:00,
2013-11-20 20:14:00,37.0,11.9,30.40,SE,135,11.0,17.0,35,0.00,,---,0.00,VWS V14.01,2013-11-21 01:14:00,
2013-11-20 20:19:00,37.0,11.9,30.40,SSE,158,9.0,17.0,35,0.00,,---,0.00,VWS V14.01,2013-11-21 01:19:00,
2013-11-20 20:24:00,37.0,11.9,30.40,ESE,112,6.0,16.0,35,0.00,,---,0.00,VWS V14.01,2013-11-21 01:24:00,
2013-11-20 20:29:00,36.0,11.6,30.40,ESE,112,6.0,16.0,36,0.00,,---,0.00,VWS V14.01,2013-11-21 01:29:00,
2013-11-20 20:34:00,36.0,11.6,30.41,SE,135,5.0,16.0,36,0.00,,---,0.00,VWS V14.01,2013-11-21 01:34:00,
2013-11-20 20:40:00,36.0,11.6,30.40,SE,135,6.0,16.0,36,0.00,,---,0.00,VWS V14.01,2013-11-21 01:40:00,
2013-11-20 20:45:00,36.0,11.6,30.41,SE,135,7.0,11.0,36,0.00,,---,0.00,VWS V14.01,2013-11-21 01:45:00,
2013-11-20 20:50:00,36.0,11.6,30.41,SE,135,6.0,13.0,36,0.00,,---,0.00,VWS V14.01,2013-11-21 01:50:00,
2013-11-20 20:55:00,36.0,11.6,30.41,SE,135,6.0,13.0,36,0.00,,---,0.00,VWS V14.01,2013-11-21 01:55:00,
2013-11-20 21:00:00,36.0,11.6,30.40,SE,135,10.0,10.0,36,0.00,,---,0.00,VWS V14.01,2013-11-21 02:00:00,
2013-11-20 21:05:00,36.0,12.3,30.40,SE,135,9.0,12.0,37,0.00,,---,0.00,VWS V14.01,2013-11-21 02:05:00,
2013-11-20 21:10:00,35.0,11.4,30.40,ESE,112,9.0,13.0,37,0.00,,---,0.00,VWS V14.01,2013-11-21 02:10:00,
2013-11-20 21:15:00,35.0,11.4,30.40,SE,135,8.0,14.0,37,0.00,,---,0.00,VWS V14.01,2013-11-21 02:15:00,
2013-11-20 21:21:00,35.0,12.0,30.40,SE,135,11.0,13.0,38,0.00,,---,0.00,VWS V14.01,2013-11-21 02:21:00,
2013-11-20 21:26:00,35.0,12.0,30.40,SE,135,11.0,14.0,38,0.00,,---,0.00,VWS V14.01,2013-11-21 02:26:00,
2013-11-20 21:31:00,35.0,12.0,30.39,SE,135,9.0,14.0,38,0.00,,---,0.00,VWS V14.01,2013-11-21 02:31:00,
2013-11-20 21:36:00,35.0,12.0,30.39,SE,135,10.0,14.0,38,0.00,,---,0.00,VWS V14.01,2013-11-21 02:36:00,
2013-11-20 21:41:00,35.0,11.4,30.39,SE,135,8.0,12.0,37,0.00,,---,0.00,VWS V14.01,2013-11-21 02:41:00,
2013-11-20 21:46:00,35.0,11.4,30.40,SE,135,7.0,13.0,37,0.00,,---,0.00,VWS V14.01,2013-11-21 02:46:00,
2013-11-20 21:51:00,35.0,11.4,30.39,SE,135,8.0,13.0,37,0.00,,---,0.00,VWS V14.01,2013-11-21 02:51:00,
2013-11-20 21:56:00,35.0,11.4,30.39,SE,135,8.0,13.0,37,0.00,,---,0.00,VWS V14.01,2013-11-21 02:56:00,
2013-11-20 22:01:00,35.0,11.4,30.39,SE,135,3.0,10.0,37,0.00,,---,0.00,VWS V14.01,2013-11-21 03:01:00,
2013-11-20 22:07:00,35.0,11.4,30.39,SE,135,8.0,16.0,37,0.00,,---,0.00,VWS V14.01,2013-11-21 03:07:00,
2013-11-20 22:12:00,35.0,11.4,30.39,SE,135,10.0,16.0,37,0.00,,---,0.00,VWS V14.01,2013-11-21 03:12:00,
2013-11-20 22:17:00,35.0,11.4,30.39,SE,135,8.0,16.0,37,0.00,,---,0.00,VWS V14.01,2013-11-21 03:17:00,
2013-11-20 22:22:00,35.0,11.4,30.39,SE,135,7.0,14.0,37,0.00,,---,0.00,VWS V14.01,2013-11-21 03:22:00,
2013-11-20 22:27:00,35.0,11.4,30.39,ESE,112,5.0,14.0,37,0.00,,---,0.00,VWS V14.01,2013-11-21 03:27:00,
2013-11-20 22:32:00,35.0,11.4,30.39,SE,135,9.0,14.0,37,0.00,,---,0.00,VWS V14.01,2013-11-21 03:32:00,
2013-11-20 22:37:00,35.0,11.4,30.39,SE,135,7.0,17.0,37,0.00,,---,0.00,VWS V14.01,2013-11-21 03:37:00,
2013-11-20 22:43:00,35.0,11.4,30.39,SE,135,6.0,11.0,37,0.00,,---,0.00,VWS V14.01,2013-11-21 03:43:00,
2013-11-20 22:48:00,35.0,11.4,30.39,SSE,158,8.0,12.0,37,0.00,,---,0.00,VWS V14.01,2013-11-21 03:48:00,
2013-11-20 22:53:00,34.0,10.5,30.40,SE,135,9.0,13.0,37,0.00,,---,0.00,VWS V14.01,2013-11-21 03:53:00,
2013-11-20 22:58:00,34.0,10.5,30.39,East,90,2.0,13.0,37,0.00,,---,0.00,VWS V14.01,2013-11-21 03:58:00,
2013-11-20 23:03:00,34.0,11.1,30.40,South,180,4.0,11.0,38,0.00,,---,0.00,VWS V14.01,2013-11-21 04:03:00,
2013-11-20 23:08:00,34.0,11.1,30.39,SE,135,5.0,11.0,38,0.00,,---,0.00,VWS V14.01,2013-11-21 04:08:00,
2013-11-20 23:13:00,34.0,11.1,30.40,SSE,158,5.0,11.0,38,0.00,,---,0.00,VWS V14.01,2013-11-21 04:13:00,
2013-11-20 23:19:00,34.0,11.1,30.40,SSE,158,5.0,11.0,38,0.00,,---,0.00,VWS V14.01,2013-11-21 04:19:00,
2013-11-20 23:24:00,34.0,11.1,30.40,SSE,158,3.0,7.0,38,0.00,,---,0.00,VWS V14.01,2013-11-21 04:24:00,
2013-11-20 23:29:00,34.0,11.7,30.40,SSE,158,6.0,7.0,39,0.00,,---,0.00,VWS V14.01,2013-11-21 04:29:00,
2013-11-20 23:34:00,34.0,11.1,30.40,SSE,158,2.0,10.0,38,0.00,,---,0.00,VWS V14.01,2013-11-21 04:34:00,
2013-11-20 23:39:00,34.0,11.1,30.40,SE,135,5.0,14.0,38,0.00,,---,0.00,VWS V14.01,2013-11-21 04:39:00,
2013-11-20 23:44:00,34.0,11.1,30.40,SE,135,6.0,9.0,38,0.00,,---,0.00,VWS V14.01,2013-11-21 04:44:00,
2013-11-20 23:49:00,34.0,11.1,30.40,SE,135,3.0,10.0,38,0.00,,---,0.00,VWS V14.01,2013-11-21 04:49:00,
2013-11-20 23:54:00,34.0,11.1,30.40,SE,135,7.0,11.0,38,0.00,,---,0.00,VWS V14.01,2013-11-21 04:54:00,
2013-11-20 23:59:00,34.0,10.5,30.39,SE,135,8.0,14.0,37,0.00,,---,0.00,VWS V14.01,2013-11-21 04:59:00,